FW6394 Weather Reports


Display with metric or nautical units.
time (UTC)temp
F
wind
direction
speed
MPH
gust
MPH
rain 1hr
in
rain 24hr
in
rain mn
in
humidity
%
barometer
mb
20221204224522 27 207 0.0 1.0 0.00 0.12 0.00 58 1019.7
20221204223016 28 234 0.0 1.0 0.00 0.12 0.00 57 1019.7
20221204221528 28 234 0.0 2.0 0.00 0.12 0.00 55 1019.6
20221204220021 28 210 0.0 3.0 0.00 0.12 0.00 54 1019.3
20221204214522 28 0 0.0 2.0 0.00 0.12 0.00 54 1019.1
20221204213023 28 239 0.0 1.0 0.00 0.12 0.00 58 1018.7
20221204211522 29 0 0.0 1.0 0.00 0.12 0.00 52 1018.4
20221204210023 29 0 0.0 3.0 0.00 0.12 0.00 48 1018.0
20221204204521 30 0 0.0 4.0 0.00 0.17 0.00 50 1018.2
20221204203023 31 0 0.0 5.0 0.00 0.17 0.00 48 1018.1
20221204201521 31 305 2.0 8.0 0.00 0.17 0.00 46 1018.1
20221204200027 32 13 4.0 10.0 0.00 0.17 0.00 44 1018.3
20221204194521 33 322 4.0 9.0 0.00 0.21 0.00 44 1018.7
20221204193038 33 300 5.0 11.0 0.00 0.21 0.00 44 1018.7
20221204191520 33 295 3.0 10.0 0.00 0.21 0.00 46 1018.5
20221204190021 33 317 2.0 10.0 0.00 0.21 0.00 46 1018.5
20221204184522 34 315 4.0 9.0 0.00 0.29 0.00 45 1018.3
20221204183021 34 339 3.0 8.0 0.00 0.29 0.00 45 1018.0
20221204181519 35 311 5.0 10.0 0.00 0.29 0.00 45 1017.7
20221204180021 34 309 4.0 10.0 0.00 0.29 0.00 45 1017.4
20221204174523 34 268 4.0 10.0 0.00 0.36 0.00 46 1017.6
20221204173027 34 24 2.0 10.0 0.00 0.36 0.00 47 1017.5
20221204171522 34 297 3.0 7.0 0.00 0.36 0.00 46 1017.5
20221204170019 34 2 6.0 12.0 0.00 0.36 0.00 48 1017.7
20221204164522 33 257 3.0 9.0 0.00 0.47 0.00 46 1017.7
20221204163025 34 302 4.0 9.0 0.00 0.47 0.00 48 1017.9
20221204161522 33 302 4.0 14.0 0.00 0.47 0.00 48 1017.6
20221204160019 33 37 6.0 14.0 0.00 0.47 0.00 50 1017.8
20221204154525 33 333 3.0 14.0 0.00 0.58 0.00 48 1018.1
20221204153017 33 337 7.0 13.0 0.00 0.58 0.00 49 1018.5
20221204151522 32 307 4.0 11.0 0.00 0.58 0.00 56 1018.4
20221204150030 32 282 5.0 15.0 0.00 0.58 0.00 53 1018.5
20221204144521 34 345 4.0 10.0 0.00 0.66 0.00 53 1018.5
20221204143019 33 311 3.0 14.0 0.00 0.66 0.00 55 1018.7
20221204141534 32 3 4.0 11.0 0.00 0.66 0.00 53 1018.5
20221204140023 32 319 3.0 10.0 0.00 0.66 0.00 56 1018.2
20221204134521 31 338 5.0 10.0 0.00 0.66 0.00 54 1018.1
20221204133021 32 333 4.0 15.0 0.00 0.66 0.00 54 1017.9
20221204131526 32 321 6.0 13.0 0.00 0.66 0.00 54 1017.8
20221204130027 31 258 5.0 11.0 0.00 0.66 0.00 55 1017.6
20221204124523 31 309 2.0 9.0 0.00 0.66 0.00 58 1017.5
20221204123021 31 355 5.0 14.0 0.00 0.66 0.00 58 1017.3
20221204121525 30 328 4.0 10.0 0.00 0.66 0.00 60 1017.0
20221204120018 31 358 3.0 9.0 0.00 0.66 0.00 61 1016.8
20221204114515 31 298 1.0 4.0 0.00 0.66 0.00 61 1016.8
20221204113027 31 18 2.0 13.0 0.00 0.66 0.00 59 1016.6
20221204111517 32 339 3.0 11.0 0.00 0.66 0.00 59 1016.3
20221204110020 32 316 6.0 13.0 0.00 0.66 0.00 58 1015.9
20221204104516 32 53 2.0 10.0 0.00 0.66 0.00 62 1015.7
20221204103014 33 356 5.0 11.0 0.00 0.66 0.00 63 1015.2
20221204101517 33 322 5.0 12.0 0.00 0.66 0.00 64 1014.9
20221204100014 33 311 3.0 9.0 0.00 0.66 0.00 70 1014.6
20221204094514 33 317 2.0 7.0 0.00 0.66 0.00 72 1014.5
20221204093037 33 316 3.0 7.0 0.00 0.66 0.00 70 1014.5
20221204091524 34 333 3.0 10.0 0.00 0.66 0.00 71 1014.1
20221204090017 34 283 2.0 6.0 0.00 0.66 0.00 68 1014.1
20221204084514 35 0 0.0 11.0 0.00 0.66 0.00 65 1013.8
20221204083014 36 342 3.0 15.0 0.00 0.66 0.00 65 1013.5
20221204081516 35 325 3.0 8.0 0.00 0.66 0.00 65 1013.4
20221204080022 36 334 2.0 9.0 0.00 0.66 0.00 65 1013.4
20221204074520 35 331 3.0 8.0 0.00 0.66 0.00 67 1013.2
20221204073018 36 295 4.0 11.0 0.00 0.66 0.00 66 1013.1
20221204071519 36 313 2.0 12.0 0.00 0.66 0.00 66 1012.9
20221204070016 37 15 4.0 12.0 0.00 0.66 0.00 66 1012.6
20221204064521 37 297 5.0 13.0 0.00 0.66 0.00 64 1012.1
20221204063024 38 1 3.0 14.0 0.00 0.66 0.00 67 1011.8
20221204061518 38 263 3.0 13.0 0.00 0.66 0.00 68 1012.0
20221204060019 38 316 6.0 14.0 0.00 0.66 0.00 68 1011.5
20221204054520 38 348 6.0 14.0 0.00 0.66 0.00 69 1011.7
20221204053020 38 311 4.0 18.0 0.00 0.66 0.00 72 1011.4
20221204051522 38 32 4.0 10.0 0.00 0.66 0.00 75 1011.2
20221204050019 38 2 2.0 9.0 0.00 0.66 0.00 79 1011.1
20221204044525 38 328 2.0 6.0 0.00 0.66 0.66 82 1010.8
20221204043025 38 312 3.0 9.0 0.00 0.66 0.66 82 1010.8
20221204041521 38 295 1.0 5.0 0.00 0.66 0.66 92 1010.5
20221204040024 39 41 1.0 4.0 0.00 0.66 0.66 90 1010.6
20221204034530 39 316 1.0 3.0 0.00 0.66 0.66 89 1010.3
20221204033025 40 290 0.0 6.0 0.00 0.66 0.66 87 1010.0
20221204031521 40 249 2.0 5.0 0.00 0.66 0.66 90 1009.9
20221204030024 41 248 3.0 11.0 0.00 0.66 0.66 90 1009.9
20221204024522 41 305 3.0 9.0 0.00 0.66 0.66 89 1009.9
20221204023018 42 318 2.0 5.0 0.00 0.66 0.66 95 1009.6
20221204021526 43 290 0.0 3.0 0.00 0.66 0.66 95 1009.0
20221204020019 43 288 1.0 5.0 0.00 0.66 0.66 94 1008.8
20221204014527 44 300 3.0 8.0 0.01 0.66 0.66 91 1008.5
20221204013022 45 236 2.0 7.0 0.01 0.66 0.66 93 1008.1
20221204011521 46 256 5.0 12.0 0.01 0.66 0.66 93 1007.7
20221204010023 47 226 3.0 9.0 0.01 0.66 0.66 96 1007.3
20221204004517 47 221 2.0 7.0 0.07 0.65 0.65 97 1007.1
20221204003029 47 295 1.0 8.0 0.10 0.65 0.65 96 1007.0
20221204001522 48 280 1.0 7.0 0.10 0.65 0.65 96 1006.7
20221204000029 48 254 4.0 10.0 0.10 0.65 0.65 96 1006.7
20221203234526 50 145 3.0 14.0 0.02 0.57 0.57 95 1006.8
20221203233037 51 183 3.0 9.0 0.00 0.55 0.55 98 1006.2
20221203231519 51 147 3.0 8.0 0.01 0.55 0.55 99 1006.1